Location: Ay?beleni
(36.6500°N, 30.3000°E)
Time: 02:41:37
(UTC+00:00)

Okean O Rocket - Pass Details

Date: 16 October 2021
Orbit: 623 x 643 km, 98.2° (Epoch: 04 December)

Event Time Altitude Azimuth Distance (km) Brightness Sun altitude
Rises 16:15:32 0° 166° (SSE) 2,889 4.9 -11.7°
Reaches altitude 10° 16:17:42 10° 166° (SSE) 1,986 4.0 -12.1°
Maximum altitude 16:22:02 89° 80° (E) 628 1.5 -13.0°
Drops below altitude 10° 16:26:23 10° 348° (NNW) 2,001 4.3 -13.9°
Sets 16:28:35 0° 348° (NNW) 2,913 5.2 -14.3°
